QPF
0.00 0.00 0.00 0.00 0.00 0.00 0.00 0.01 0.01 0.01 0.01 0.00 0.00 0.01 0.01 0.00 0.00 0.00 0.00 0.00 0.00 0.00 0.00 0.00 0.00 0.00 0.01 0.01 0.02 0.03 0.03 0.02 0.02 0.03 0.02 0.02 0.03 0.03 0.04 0.05 0.06 0.06 0.05 0.05
0.00 0.00 0.00 0.00 0.00 0.00 0.01 0.01 0.01 0.01 0.00 0.00 0.01 0.03 0.02 0.01 0.00 0.00 0.00 0.01 0.01 0.00 0.00 0.01 0.02 0.03 0.03 0.03 0.02 0.03 0.04 0.03 0.02 0.02 0.02 0.02 0.02 0.04 0.05 0.07 0.09 0.09 0.08 0.06
0.00 0.00 0.00 0.00 0.00 0.00 0.00 0.00 0.00 0.00 0.00 0.00 0.02 0.05 0.03 0.02 0.01 0.00 0.00 0.00 0.01 0.01 0.01 0.02 0.04 0.07 0.07 0.08 0.06 0.04 0.05 0.04 0.03 0.02 0.02 0.02 0.03 0.03 0.07 0.09 0.08 0.08 0.09 0.08
0.00 0.00 0.01 0.00 0.00 0.00 0.00 0.00 0.00 0.00 0.00 0.01 0.01 0.03 0.04 0.03 0.01 0.00 0.00 0.00 0.01 0.01 0.01 0.02 0.04 0.07 0.13 0.15 0.11 0.05 0.07 0.07 0.04 0.03 0.02 0.02 0.02 0.01 0.05 0.06 0.07 0.07 0.12 0.09
0.00 0.00 0.00 0.00 0.00 0.00 0.00 0.00 0.00 0.00 0.00 0.00 0.00 0.01 0.02 0.03 0.03 0.01 0.00 0.00 0.02 0.01 0.01 0.02 0.04 0.07 0.12 0.14 0.08 0.03 0.05 0.10 0.08 0.04 0.03 0.02 0.01 0.02 0.02 0.02 0.03 0.03 0.03 0.03
0.00 0.00 0.00 0.00 0.00 0.00 0.00 0.00 0.00 0.00 0.01 0.01 0.01 0.01 0.02 0.02 0.04 0.05 0.02 0.01 0.01 0.01 0.02 0.02 0.03 0.03 0.04 0.04 0.03 0.03 0.03 0.06 0.09 0.05 0.03 0.03 0.03 0.03 0.02 0.03 0.03 0.04 0.03 0.03
0.00 0.00 0.00 0.00 0.00 0.00 0.00 0.01 0.01 0.01 0.01 0.01 0.00 0.01 0.02 0.02 0.03 0.05 0.03 0.01 0.01 0.01 0.02 0.02 0.02 0.02 0.02 0.02 0.02 0.02 0.03 0.03 0.04 0.04 0.03 0.03 0.04 0.04 0.03 0.02 0.03 0.03 0.02 0.02
0.00 0.00 0.00 0.00 0.00 0.00 0.00 0.01 0.01 0.01 0.01 0.00 0.01 0.01 0.02 0.01 0.02 0.03 0.04 0.03 0.02 0.01 0.01 0.02 0.01 0.01 0.01 0.01 0.01 0.01 0.02 0.02 0.03 0.02 0.03 0.03 0.04 0.03 0.04 0.04 0.03 0.03 0.02 0.02
0.01 0.00 0.00 0.00 0.00 0.00 0.00 0.00 0.00 0.01 0.00 0.01 0.01 0.02 0.01 0.01 0.01 0.02 0.02 0.02 0.02 0.01 0.01 0.01 0.01 0.01 0.02 0.01 0.01 0.01 0.01 0.02 0.02 0.01 0.01 0.02 0.02 0.03 0.03 0.04 0.05 0.04 0.03 0.02
0.01 0.01 0.00 0.00 0.00 0.00 0.00 0.00 0.00 0.01 0.01 0.01 0.01 0.02 0.03 0.04 0.04 0.03 0.01 0.00 0.01 0.01 0.01 0.01 0.01 0.01 0.01 0.02 0.02 0.01 0.01 0.01 0.01 0.01 0.01 0.01 0.01 0.01 0.02 0.03 0.03 0.04 0.03 0.03
0.01 0.01 0.01 0.00 0.00 0.00 0.00 0.00 0.00 0.01 0.01 0.01 0.02 0.03 0.03 0.03 0.03 0.02 0.01 0.01 0.01 0.01 0.01 0.01 0.01 0.01 0.01 0.01 0.01 0.01 0.01 0.01 0.01 0.01 0.01 0.01 0.01 0.01 0.01 0.01 0.02 0.03 0.03 0.02
0.02 0.02 0.02 0.00 0.00 0.00 0.00 0.00 0.01 0.02 0.02 0.02 0.02 0.03 0.02 0.01 0.01 0.01 0.02 0.03 0.02 0.01 0.01 0.02 0.01 0.01 0.01 0.01 0.02 0.02 0.02 0.01 0.01 0.01 0.01 0.01 0.01 0.01 0.01 0.01 0.01 0.01 0.02 0.02
0.02 0.02 0.02 0.02 0.01 0.01 0.01 0.00 0.01 0.01 0.02 0.02 0.03 0.04 0.02 0.02 0.02 0.02 0.03 0.03 0.01 0.01 0.02 0.04 0.03 0.03 0.03 0.02 0.02 0.02 0.03 0.02 0.02 0.01 0.01 0.01 0.01 0.01 0.01 0.02 0.02 0.02 0.01 0.01
0.02 0.01 0.02 0.03 0.02 0.02 0.02 0.01 0.01 0.02 0.03 0.03 0.03 0.03 0.03 0.02 0.02 0.04 0.06 0.03 0.02 0.03 0.05 0.09 0.07 0.05 0.04 0.03 0.03 0.02 0.04 0.03 0.02 0.02 0.02 0.02 0.01 0.01 0.02 0.02 0.02 0.02 0.02 0.02
0.02 0.02 0.01 0.02 0.01 0.01 0.02 0.03 0.02 0.01 0.02 0.03 0.03 0.04 0.06 0.05 0.03 0.06 0.07 0.06 0.06 0.06 0.06 0.08 0.09 0.07 0.04 0.04 0.04 0.03 0.04 0.05 0.04 0.04 0.04 0.03 0.02 0.02 0.02 0.02 0.02 0.02 0.02 0.02
0.02 0.02 0.02 0.02 0.01 0.01 0.02 0.01 0.01 0.01 0.02 0.03 0.04 0.06 0.07 0.06 0.04 0.06 0.05 0.06 0.06 0.07 0.05 0.05 0.06 0.08 0.04 0.05 0.05 0.04 0.03 0.06 0.05 0.04 0.06 0.04 0.03 0.02 0.02 0.02 0.02 0.02 0.02 0.02
0.03 0.03 0.04 0.04 0.02 0.02 0.04 0.02 0.01 0.01 0.02 0.03 0.05 0.07 0.06 0.05 0.03 0.03 0.03 0.04 0.05 0.05 0.04 0.05 0.04 0.04 0.03 0.04 0.04 0.05 0.03 0.03 0.04 0.04 0.05 0.05 0.03 0.02 0.02 0.01 0.02 0.02 0.02 0.02
0.04 0.06 0.05 0.06 0.05 0.06 0.07 0.04 0.02 0.02 0.03 0.03 0.03 0.04 0.05 0.05 0.03 0.03 0.02 0.02 0.02 0.03 0.04 0.04 0.04 0.03 0.02 0.03 0.03 0.03 0.03 0.03 0.02 0.03 0.04 0.04 0.04 0.03 0.02 0.03 0.02 0.02 0.02 0.02
0.04 0.05 0.06 0.08 0.10 0.08 0.07 0.05 0.04 0.03 0.04 0.05 0.06 0.06 0.04 0.05 0.04 0.04 0.03 0.02 0.02 0.03 0.04 0.03 0.02 0.02 0.02 0.03 0.04 0.03 0.04 0.03 0.03 0.02 0.02 0.03 0.03 0.03 0.03 0.03 0.03 0.03 0.02 0.02
0.03 0.05 0.07 0.10 0.10 0.10 0.09 0.06 0.04 0.04 0.07 0.07 0.07 0.06 0.06 0.06 0.06 0.06 0.04 0.03 0.02 0.02 0.02 0.02 0.02 0.01 0.02 0.03 0.04 0.04 0.03 0.03 0.03 0.03 0.04 0.04 0.03 0.03 0.03 0.03 0.04 0.04 0.04 0.03
0.03 0.04 0.06 0.07 0.08 0.08 0.04 0.03 0.04 0.08 0.10 0.07 0.06 0.05 0.07 0.08 0.08 0.07 0.05 0.04 0.03 0.03 0.03 0.04 0.03 0.03 0.04 0.04 0.04 0.04 0.03 0.03 0.03 0.03 0.03 0.04 0.04 0.03 0.04 0.05 0.04 0.05 0.05 0.05
0.03 0.04 0.05 0.07 0.08 0.08 0.03 0.03 0.05 0.07 0.05 0.05 0.04 0.05 0.06 0.07 0.08 0.07 0.06 0.05 0.04 0.04 0.03 0.03 0.03 0.03 0.04 0.04 0.04 0.04 0.05 0.05 0.05 0.04 0.03 0.04 0.04 0.03 0.03 0.04 0.04 0.04 0.04 0.05
0.04 0.05 0.06 0.07 0.07 0.05 0.03 0.03 0.03 0.03 0.04 0.04 0.04 0.04 0.04 0.06 0.07 0.06 0.07 0.08 0.07 0.06 0.06 0.05 0.04 0.05 0.05 0.05 0.05 0.05 0.05 0.04 0.04 0.04 0.04 0.05 0.04 0.05 0.05 0.05 0.05 0.04 0.04 0.04
0.02 0.02 0.03 0.05 0.04 0.03 0.03 0.03 0.03 0.03 0.04 0.04 0.04 0.05 0.06 0.10 0.09 0.09 0.08 0.06 0.05 0.05 0.06 0.07 0.07 0.06 0.06 0.05 0.05 0.06 0.06 0.05 0.05 0.05 0.04 0.05 0.05 0.06 0.06 0.06 0.04 0.03 0.03 0.03
0.03 0.03 0.05 0.06 0.04 0.03 0.02 0.03 0.03 0.03 0.04 0.05 0.06 0.08 0.12 0.15 0.10 0.06 0.04 0.04 0.04 0.04 0.05 0.06 0.05 0.05 0.06 0.05 0.05 0.07 0.06 0.05 0.05 0.04 0.04 0.04 0.04 0.06 0.07 0.05 0.04 0.03 0.02 0.02
0.09 0.09 0.09 0.08 0.04 0.04 0.04 0.04 0.05 0.06 0.07 0.07 0.06 0.08 0.10 0.10 0.06 0.04 0.04 0.04 0.05 0.05 0.05 0.05 0.04 0.04 0.04 0.04 0.04 0.04 0.05 0.04 0.04 0.03 0.03 0.03 0.04 0.05 0.06 0.06 0.04 0.03 0.03 0.03
MSLP
1003.58 1003.66 1003.53 1003.24 1002.83 1002.37 1001.92 1001.54 1001.22 1000.96 1000.74 1000.53 1000.31 1000.10 999.91 999.82 999.86 1000.09 1000.53 1001.19 1002.04 1003.01 1004.02 1005.02 1005.92 1006.70 1007.34 1007.85 1008.28 1008.65 1009.01 1009.38 1009.76 1010.15 1010.53 1010.85 1011.11 1011.28 1011.35 1011.35 1011.29 1011.22 1011.15 1011.11
1003.65 1003.56 1003.29 1002.87 1002.39 1001.92 1001.52 1001.22 1001.02 1000.88 1000.76 1000.60 1000.39 1000.14 999.88 999.68 999.62 999.77 1000.17 1000.83 1001.72 1002.77 1003.89 1004.98 1005.97 1006.81 1007.48 1008.00 1008.40 1008.76 1009.10 1009.46 1009.87 1010.29 1010.71 1011.09 1011.39 1011.59 1011.69 1011.70 1011.65 1011.58 1011.52 1011.51
1003.44 1003.19 1002.78 1002.28 1001.77 1001.34 1001.04 1000.88 1000.83 1000.84 1000.84 1000.75 1000.55 1000.25 999.90 999.58 999.40 999.44 999.77 1000.41 1001.33 1002.44 1003.65 1004.84 1005.92 1006.83 1007.54 1008.09 1008.49 1008.83 1009.16 1009.52 1009.93 1010.37 1010.82 1011.23 1011.57 1011.80 1011.93 1011.97 1011.95 1011.92 1011.90 1011.92
1003.02 1002.62 1002.10 1001.56 1001.08 1000.74 1000.58 1000.59 1000.74 1000.92 1001.04 1001.03 1000.83 1000.47 1000.01 999.55 999.21 999.12 999.35 999.93 1000.84 1001.99 1003.27 1004.56 1005.74 1006.75 1007.54 1008.12 1008.56 1008.91 1009.23 1009.58 1009.99 1010.43 1010.89 1011.32 1011.68 1011.94 1012.10 1012.18 1012.21 1012.22 1012.25 1012.32
1002.55 1002.02 1001.43 1000.88 1000.45 1000.23 1000.24 1000.45 1000.78 1001.13 1001.37 1001.41 1001.21 1000.77 1000.18 999.55 999.04 998.78 998.88 999.37 1000.24 1001.41 1002.75 1004.14 1005.43 1006.54 1007.43 1008.10 1008.59 1008.97 1009.31 1009.66 1010.06 1010.50 1010.95 1011.39 1011.76 1012.05 1012.24 1012.35 1012.42 1012.48 1012.56 1012.70
1002.25 1001.63 1000.99 1000.43 1000.07 999.96 1000.11 1000.49 1000.98 1001.45 1001.78 1001.85 1001.61 1001.08 1000.34 999.54 998.84 998.40 998.34 998.72 999.53 1000.69 1002.08 1003.54 1004.95 1006.18 1007.19 1007.97 1008.54 1008.98 1009.36 1009.73 1010.13 1010.57 1011.02 1011.45 1011.83 1012.13 1012.35 1012.50 1012.60 1012.70 1012.84 1013.01
1002.36 1001.64 1000.95 1000.40 1000.06 1000.01 1000.25 1000.71 1001.29 1001.82 1002.18 1002.23 1001.93 1001.29 1000.41 999.43 998.55 997.93 997.71 997.97 998.70 999.83 1001.24 1002.78 1004.29 1005.65 1006.79 1007.70 1008.38 1008.91 1009.35 1009.76 1010.18 1010.62 1011.07 1011.50 1011.89 1012.21 1012.44 1012.61 1012.75 1012.88 1013.05 1013.25
1002.99 1002.20 1001.46 1000.86 1000.49 1000.42 1000.65 1001.09 1001.65 1002.15 1002.45 1002.43 1002.04 1001.30 1000.29 999.16 998.12 997.35 996.99 997.14 997.78 998.88 1000.30 1001.88 1003.48 1004.96 1006.23 1007.26 1008.07 1008.71 1009.22 1009.69 1010.14 1010.61 1011.07 1011.52 1011.92 1012.25 1012.50 1012.70 1012.85 1013.01 1013.19 1013.41
1004.16 1003.31 1002.49 1001.80 1001.33 1001.14 1001.23 1001.54 1001.96 1002.32 1002.50 1002.37 1001.88 1001.03 999.93 998.71 997.57 996.70 996.25 996.30 996.87 997.91 999.31 1000.92 1002.58 1004.14 1005.52 1006.68 1007.61 1008.35 1008.96 1009.50 1010.01 1010.51 1011.00 1011.46 1011.88 1012.24 1012.52 1012.73 1012.91 1013.07 1013.25 1013.47
1005.74 1004.84 1003.93 1003.11 1002.46 1002.06 1001.91 1001.97 1002.14 1002.28 1002.27 1002.00 1001.40 1000.50 999.35 998.11 996.96 996.06 995.56 995.55 996.07 997.06 998.42 1000.01 1001.68 1003.29 1004.74 1005.99 1007.02 1007.87 1008.57 1009.18 1009.75 1010.30 1010.83 1011.33 1011.78 1012.16 1012.47 1012.71 1012.90 1013.08 1013.26 1013.47
1007.46 1006.54 1005.54 1004.56 1003.70 1003.02 1002.55 1002.28 1002.13 1002.00 1001.77 1001.35 1000.68 999.76 998.66 997.48 996.39 995.54 995.07 995.05 995.53 996.46 997.75 999.29 1000.92 1002.52 1004.00 1005.29 1006.39 1007.31 1008.09 1008.77 1009.40 1010.00 1010.58 1011.12 1011.61 1012.03 1012.37 1012.64 1012.85 1013.04 1013.22 1013.42
1009.04 1008.12 1007.06 1005.93 1004.84 1003.86 1003.06 1002.44 1001.96 1001.54 1001.10 1000.56 999.86 998.99 997.99 996.96 996.02 995.30 994.90 994.92 995.37 996.23 997.43 998.86 1000.41 1001.94 1003.38 1004.67 1005.79 1006.76 1007.59 1008.33 1009.01 1009.66 1010.28 1010.86 1011.39 1011.85 1012.23 1012.53 1012.77 1012.98 1013.16 1013.35
1010.19 1009.33 1008.25 1007.02 1005.74 1004.51 1003.41 1002.46 1001.68 1001.02 1000.41 999.79 999.11 998.35 997.53 996.71 995.98 995.43 995.15 995.22 995.65 996.43 997.50 998.80 1000.20 1001.61 1002.96 1004.20 1005.30 1006.27 1007.13 1007.90 1008.62 1009.31 1009.97 1010.58 1011.15 1011.65 1012.07 1012.41 1012.68 1012.90 1013.10 1013.29
1010.79 1010.03 1008.98 1007.71 1006.33 1004.93 1003.60 1002.42 1001.41 1000.57 999.85 999.22 998.62 998.02 997.42 996.84 996.34 995.99 995.85 995.96 996.36 997.03 997.96 999.06 1000.28 1001.53 1002.74 1003.89 1004.93 1005.88 1006.74 1007.53 1008.28 1008.99 1009.67 1010.31 1010.91 1011.44 1011.89 1012.27 1012.58 1012.82 1013.04 1013.23
1010.82 1010.19 1009.25 1008.03 1006.63 1005.17 1003.73 1002.42 1001.28 1000.35 999.60 999.00 998.52 998.10 997.73 997.40 997.13 996.96 996.92 997.06 997.41 997.95 998.69 999.58 1000.58 1001.62 1002.67 1003.69 1004.66 1005.56 1006.41 1007.20 1007.96 1008.69 1009.39 1010.05 1010.66 1011.22 1011.70 1012.11 1012.45 1012.73 1012.96 1013.17
1010.40 1009.94 1009.14 1008.06 1006.75 1005.33 1003.90 1002.57 1001.41 1000.47 999.75 999.23 998.87 998.63 998.47 998.35 998.27 998.23 998.26 998.39 998.64 999.03 999.55 1000.21 1000.96 1001.79 1002.66 1003.54 1004.41 1005.26 1006.08 1006.88 1007.64 1008.38 1009.09 1009.76 1010.39 1010.96 1011.46 1011.90 1012.26 1012.57 1012.83 1013.06
1009.73 1009.45 1008.85 1007.95 1006.82 1005.54 1004.22 1002.96 1001.87 1000.98 1000.34 999.91 999.67 999.58 999.56 999.59 999.63 999.66 999.70 999.77 999.89 1000.09 1000.38 1000.79 1001.30 1001.91 1002.59 1003.34 1004.11 1004.91 1005.71 1006.50 1007.28 1008.02 1008.74 1009.42 1010.05 1010.63 1011.15 1011.61 1012.00 1012.34 1012.62 1012.86
1009.04 1008.94 1008.54 1007.87 1006.96 1005.88 1004.74 1003.64 1002.66 1001.88 1001.32 1000.98 1000.83 1000.82 1000.89 1000.98 1001.06 1001.10 1001.09 1001.05 1001.00 1001.00 1001.06 1001.22 1001.50 1001.90 1002.41 1003.03 1003.72 1004.47 1005.25 1006.04 1006.82 1007.58 1008.30 1008.99 1009.62 1010.21 1010.74 1011.21 1011.63 1012.00 1012.31 1012.57
1008.52 1008.57 1008.38 1007.93 1007.25 1006.41 1005.48 1004.55 1003.72 1003.04 1002.56 1002.28 1002.17 1002.19 1002.28 1002.37 1002.42 1002.40 1002.29 1002.12 1001.90 1001.69 1001.54 1001.48 1001.55 1001.76 1002.12 1002.62 1003.24 1003.95 1004.71 1005.50 1006.29 1007.06 1007.79 1008.47 1009.11 1009.70 1010.24 1010.73 1011.17 1011.55 1011.89 1012.17
1008.26 1008.43 1008.40 1008.16 1007.71 1007.08 1006.36 1005.61 1004.91 1004.34 1003.91 1003.66 1003.55 1003.55 1003.60 1003.64 1003.62 1003.50 1003.28 1002.97 1002.60 1002.21 1001.87 1001.63 1001.52 1001.58 1001.82 1002.22 1002.77 1003.43 1004.17 1004.95 1005.74 1006.50 1007.24 1007.92 1008.56 1009.15 1009.69 1010.19 1010.64 1011.05 1011.40 1011.71
1008.25 1008.50 1008.60 1008.52 1008.25 1007.82 1007.28 1006.68 1006.10 1005.59 1005.21 1004.95 1004.81 1004.76 1004.74 1004.70 1004.60 1004.39 1004.07 1003.65 1003.16 1002.65 1002.18 1001.80 1001.56 1001.50 1001.64 1001.95 1002.43 1003.04 1003.75 1004.50 1005.27 1006.02 1006.74 1007.41 1008.04 1008.62 1009.16 1009.66 1010.12 1010.54 1010.91 1011.24
1008.40 1008.69 1008.88 1008.92 1008.79 1008.51 1008.10 1007.62 1007.13 1006.68 1006.31 1006.03 1005.85 1005.74 1005.66 1005.55 1005.38 1005.11 1004.73 1004.26 1003.70 1003.13 1002.59 1002.14 1001.82 1001.68 1001.73 1001.97 1002.37 1002.92 1003.56 1004.26 1004.99 1005.70 1006.38 1007.02 1007.63 1008.19 1008.71 1009.20 1009.66 1010.09 1010.48 1010.82
1008.59 1008.90 1009.14 1009.25 1009.22 1009.04 1008.74 1008.34 1007.91 1007.50 1007.13 1006.84 1006.63 1006.47 1006.34 1006.20 1006.00 1005.72 1005.34 1004.87 1004.33 1003.76 1003.22 1002.75 1002.40 1002.21 1002.20 1002.37 1002.69 1003.15 1003.71 1004.34 1004.98 1005.62 1006.24 1006.83 1007.39 1007.91 1008.41 1008.88 1009.33 1009.75 1010.14 1010.50
1008.70 1009.02 1009.27 1009.43 1009.46 1009.35 1009.12 1008.79 1008.41 1008.02 1007.67 1007.37 1007.14 1006.97 1006.83 1006.69 1006.52 1006.28 1005.96 1005.56 1005.10 1004.60 1004.11 1003.67 1003.34 1003.13 1003.08 1003.17 1003.41 1003.77 1004.22 1004.73 1005.27 1005.82 1006.35 1006.86 1007.35 1007.82 1008.27 1008.71 1009.14 1009.54 1009.93 1010.28
1008.66 1008.96 1009.22 1009.40 1009.47 1009.41 1009.23 1008.96 1008.63 1008.28 1007.95 1007.67 1007.45 1007.29 1007.17 1007.08 1006.97 1006.82 1006.60 1006.32 1005.98 1005.61 1005.22 1004.86 1004.57 1004.37 1004.28 1004.31 1004.46 1004.71 1005.03 1005.42 1005.82 1006.25 1006.67 1007.08 1007.49 1007.89 1008.28 1008.68 1009.06 1009.44 1009.81 1010.15
1008.43 1008.72 1008.98 1009.17 1009.27 1009.26 1009.14 1008.92 1008.65 1008.34 1008.06 1007.81 1007.62 1007.50 1007.43 1007.40 1007.38 1007.34 1007.26 1007.12 1006.93 1006.69 1006.42 1006.16 1005.93 1005.75 1005.65 1005.63 1005.69 1005.82 1006.02 1006.26 1006.54 1006.82 1007.13 1007.43 1007.74 1008.06 1008.39 1008.72 1009.06 1009.40 1009.74 1010.06
Thickness
5795 5784 5781 5792 5802 5804 5807 5805 5804 5813 5829 5821 5814 5813 5817 5827 5828 5823 5818 5817 5815 5812 5815 5814 5812 5809 5803 5798 5793 5788 5784 5781 5778 5774 5770 5767 5764 5763 5762 5759 5756 5754 5752 5751
5781 5778 5796 5808 5810 5806 5801 5794 5798 5813 5827 5818 5809 5806 5816 5821 5821 5821 5816 5813 5811 5808 5808 5806 5804 5801 5796 5792 5788 5785 5781 5778 5775 5772 5770 5767 5764 5761 5759 5757 5754 5752 5750 5748
5771 5788 5804 5799 5795 5794 5795 5792 5795 5802 5814 5815 5804 5794 5804 5814 5820 5821 5818 5815 5812 5807 5802 5800 5797 5795 5791 5786 5783 5781 5778 5775 5772 5771 5768 5765 5761 5758 5755 5752 5750 5749 5747 5745
5778 5793 5795 5789 5787 5789 5782 5801 5802 5800 5794 5788 5793 5772 5793 5804 5806 5809 5809 5809 5808 5806 5801 5796 5793 5790 5787 5783 5780 5777 5774 5771 5769 5767 5764 5760 5755 5751 5750 5749 5748 5746 5745 5743
5773 5786 5785 5781 5787 5790 5787 5803 5799 5794 5787 5781 5787 5775 5785 5801 5792 5794 5800 5804 5804 5802 5798 5793 5790 5787 5785 5782 5778 5774 5770 5766 5764 5763 5761 5757 5753 5751 5750 5748 5745 5743 5741 5740
5778 5793 5792 5789 5794 5795 5794 5790 5787 5785 5779 5757 5775 5772 5773 5786 5787 5787 5791 5796 5797 5797 5794 5790 5788 5784 5780 5778 5774 5770 5765 5761 5760 5758 5756 5753 5749 5747 5745 5743 5740 5739 5738 5736
5760 5776 5790 5793 5779 5783 5781 5762 5747 5745 5747 5752 5781 5772 5766 5785 5793 5789 5786 5787 5790 5790 5788 5783 5780 5777 5773 5770 5767 5764 5759 5755 5754 5753 5750 5748 5746 5744 5741 5740 5738 5736 5734 5733
5739 5748 5774 5781 5772 5765 5767 5761 5737 5727 5738 5757 5777 5766 5771 5791 5793 5791 5786 5782 5779 5780 5780 5778 5776 5773 5768 5764 5761 5758 5754 5750 5749 5748 5746 5744 5742 5740 5739 5737 5736 5734 5732 5731
5733 5740 5773 5779 5780 5771 5758 5759 5767 5750 5749 5745 5754 5758 5767 5778 5777 5778 5774 5773 5770 5770 5772 5772 5770 5767 5763 5759 5755 5753 5749 5746 5745 5745 5743 5740 5738 5736 5735 5734 5733 5730 5729 5728
5738 5728 5754 5772 5774 5772 5769 5764 5754 5741 5725 5724 5741 5743 5743 5752 5757 5761 5762 5760 5761 5762 5763 5763 5762 5760 5757 5754 5751 5749 5746 5743 5742 5741 5739 5736 5733 5732 5731 5730 5727 5726 5725 5724
5733 5719 5734 5749 5747 5747 5752 5751 5747 5741 5739 5723 5720 5728 5751 5749 5750 5750 5753 5754 5752 5753 5755 5754 5753 5753 5752 5749 5746 5743 5740 5738 5736 5735 5733 5731 5729 5728 5726 5724 5722 5721 5721 5719
5723 5715 5713 5732 5753 5760 5751 5746 5740 5720 5719 5727 5720 5719 5747 5746 5745 5743 5743 5745 5744 5744 5747 5747 5745 5744 5743 5741 5740 5738 5736 5733 5732 5731 5729 5727 5725 5723 5720 5719 5717 5717 5715 5714
5708 5700 5692 5707 5725 5736 5736 5739 5737 5731 5723 5716 5709 5711 5738 5736 5734 5733 5733 5733 5733 5733 5735 5736 5734 5733 5733 5734 5734 5733 5731 5729 5728 5726 5724 5722 5720 5718 5715 5714 5713 5712 5710 5709
5704 5694 5689 5689 5703 5713 5714 5721 5726 5719 5706 5705 5707 5707 5717 5719 5718 5719 5719 5722 5723 5722 5723 5721 5720 5722 5724 5725 5726 5726 5725 5724 5722 5720 5717 5715 5714 5713 5711 5710 5708 5708 5706 5704
5696 5686 5692 5701 5710 5711 5709 5711 5714 5710 5707 5699 5702 5704 5708 5712 5710 5711 5711 5712 5711 5710 5712 5711 5709 5711 5715 5717 5718 5719 5718 5717 5715 5713 5711 5709 5709 5707 5706 5704 5703 5703 5701 5699
5688 5679 5684 5688 5703 5706 5701 5706 5708 5706 5705 5702 5700 5696 5709 5709 5707 5704 5703 5703 5701 5700 5700 5702 5702 5702 5705 5708 5709 5709 5710 5709 5708 5705 5704 5704 5703 5701 5699 5698 5697 5696 5695 5693
5677 5671 5668 5674 5691 5692 5681 5694 5698 5699 5700 5697 5687 5689 5697 5694 5692 5692 5694 5693 5691 5692 5693 5693 5694 5695 5698 5700 5701 5699 5701 5702 5700 5698 5697 5697 5696 5694 5693 5692 5691 5689 5688 5686
5665 5663 5663 5666 5672 5657 5675 5695 5694 5689 5685 5686 5683 5683 5686 5684 5685 5686 5687 5684 5682 5682 5683 5686 5686 5688 5691 5694 5694 5693 5694 5693 5692 5691 5690 5689 5687 5687 5687 5685 5684 5683 5681 5680
5670 5659 5654 5657 5656 5660 5670 5678 5676 5670 5666 5673 5670 5671 5674 5676 5676 5674 5676 5675 5674 5675 5676 5678 5681 5683 5683 5683 5685 5685 5685 5686 5685 5682 5682 5681 5681 5680 5679 5679 5678 5677 5676 5675
5668 5659 5649 5650 5644 5640 5648 5665 5673 5667 5650 5659 5661 5659 5662 5663 5654 5655 5662 5664 5665 5667 5670 5671 5673 5675 5674 5675 5676 5676 5675 5676 5675 5675 5675 5675 5674 5673 5672 5672 5671 5671 5670 5669
5650 5648 5644 5644 5640 5637 5648 5658 5661 5640 5635 5648 5652 5652 5652 5649 5648 5651 5654 5655 5656 5657 5660 5662 5664 5664 5665 5666 5666 5666 5667 5667 5669 5669 5669 5668 5668 5667 5666 5666 5665 5665 5664 5663
5640 5638 5637 5636 5628 5624 5643 5645 5636 5631 5641 5643 5645 5646 5645 5644 5644 5644 5646 5646 5647 5648 5651 5653 5654 5655 5657 5658 5658 5658 5658 5660 5662 5662 5662 5661 5661 5661 5662 5659 5659 5659 5657 5656
5637 5634 5633 5627 5622 5629 5635 5633 5634 5636 5634 5636 5637 5639 5639 5637 5636 5636 5636 5636 5637 5639 5641 5643 5645 5646 5649 5651 5652 5651 5651 5653 5653 5653 5653 5654 5655 5655 5654 5653 5652 5652 5651 5649
5634 5639 5632 5625 5624 5625 5628 5630 5631 5631 5630 5632 5632 5631 5630 5629 5628 5627 5627 5627 5628 5630 5632 5634 5637 5638 5640 5642 5644 5645 5646 5646 5646 5646 5646 5647 5647 5647 5647 5646 5646 5645 5644 5643
5624 5626 5622 5618 5620 5621 5620 5621 5623 5625 5626 5626 5626 5625 5623 5622 5621 5620 5619 5619 5620 5622 5623 5626 5628 5629 5631 5634 5635 5636 5637 5637 5637 5637 5637 5638 5639 5641 5639 5639 5639 5639 5638 5637
5617 5614 5610 5607 5612 5611 5611 5616 5617 5617 5617 5617 5617 5617 5617 5615 5613 5613 5612 5613 5614 5614 5616 5618 5620 5623 5624 5626 5626 5627 5628 5628 5628 5628 5628 5630 5631 5632 5632 5631 5630 5630 5630 5629